Location: Unspecified
(38.0989°N, 0.6729°W)
Time: 22:21:24
(UTC+01:00)

Amateur Radio Satellites - All Passes

Search period start: 21 February 2017 21:51
Search period end: 22 February 2017 21:51
Location: Unspecified, 38.0989°N, 0.6729°W

Satellite Date Start Highest point End Downlink Frequencies (MHz)
Time Altitude Azimuth
ZACube-1 21 Feb 22:00:53 22:04:26 24° 266° (W) 22:08:04 437.345
RS-15 21 Feb 22:17:19 22:26:29 23° 336° (NNW) 22:35:49 29.354- 29.394
YUBILEINY 21 Feb 22:26:39 22:35:08 52° 77° (ENE) 22:43:32 435.215
ESTCUBE 1 21 Feb 22:46:24 22:49:41 20° 67° (ENE) 22:52:57 437.505/2401.250
SO-50 21 Feb 22:47:14 22:49:32 14° 108° (ESE) 22:51:48 436.795
FO-29 21 Feb 22:49:28 22:55:55 29° 92° (E) 23:01:53 435.910
PRISM 21 Feb 22:50:08 22:54:09 63° 285° (WNW) 22:58:10 437.425
DELFI C3 21 Feb 22:57:07 22:59:56 19° 266° (W) 23:02:46 145.870
UNISAT 6 21 Feb 23:15:11 23:19:55 90° 63° (ENE) 23:24:36 437.425
TIGRISAT 21 Feb 23:16:52 23:21:36 87° 100° (E) 23:26:17 435.000
VELOX 1 21 Feb 23:30:57 23:34:05 20° 67° (ENE) 23:37:13 145.980
EO-79 21 Feb 23:35:29 23:36:31 11° 91° (E) 23:37:33 145.935-145.965
DX 1 21 Feb 23:39:47 23:40:21 10° 62° (ENE) 23:40:54 434.975-435.025
O/OREOS (USA 219) 21 Feb 23:41:30 23:45:21 29° 103° (ESE) 23:49:14 437.305
POLYITAN 1 21 Feb 23:50:00 23:52:50 17° 93° (E) 23:55:38 437.675
QB50P2 21 Feb 23:52:31 23:55:38 19° 94° (E) 23:58:45 145.880/145.840
NANOSAT C BR1 21 Feb 23:53:42 23:56:29 17° 93° (E) 23:59:15 145.865
UKube-1 21 Feb 23:59:22 00:01:10 12° 64° (ENE) 00:02:56 .
SPROUT 22 Feb 00:10:38 00:14:36 40° 72° (ENE) 00:18:36 437.525
50 SAT 22 Feb 00:11:30 00:14:39 32° 73° (ENE) 00:17:49 437.505
ESTCUBE 1 22 Feb 00:22:03 00:26:12 36° 262° (W) 00:30:24 437.505/2401.250
YUBILEINY 22 Feb 00:24:09 00:31:27 31° 276° (W) 00:38:44 435.215
SO-50 22 Feb 00:24:50 00:29:29 62° 303° (WNW) 00:34:05 436.795
FO-29 22 Feb 00:33:43 00:41:13 54° 290° (WNW) 00:48:06 435.910
RS-15 22 Feb 00:37:17 00:45:34 20° 13° (NNE) 00:53:46 29.354- 29.394
AIST 2D 22 Feb 00:41:32 00:45:03 56° 284° (WNW) 00:48:30 435.315
BUGSAT 1 22 Feb 00:42:51 00:45:52 19° 94° (E) 00:48:52 437.445
DUCHIFAT 1 22 Feb 01:02:37 01:06:54 82° 284° (WNW) 01:11:09 145.980
VELOX 1 22 Feb 01:06:16 01:10:16 35° 262° (W) 01:14:18 145.980
JUGNU 22 Feb 01:06:32 01:08:53 12° 178° (S) 01:11:14 437.505
EO-79 22 Feb 01:08:23 01:12:36 57° 286° (WNW) 01:16:47 145.935-145.965
DX 1 22 Feb 01:11:37 01:15:55 70° 258° (WSW) 01:20:15 434.975-435.025
O/OREOS (USA 219) 22 Feb 01:21:05 01:24:43 24° 300° (WNW) 01:28:23 437.305
POLYITAN 1 22 Feb 01:24:44 01:28:43 37° 288° (WNW) 01:32:40 437.675
Oscar 19 22 Feb 01:27:07 01:30:25 17° 93° (E) 01:33:44 437.125/150
QB50P2 22 Feb 01:27:38 01:31:27 32° 289° (WNW) 01:35:16 145.880/145.840
NANOSAT C BR1 22 Feb 01:28:22 01:32:18 37° 288° (WNW) 01:36:13 145.865
UKube-1 22 Feb 01:32:28 01:36:41 56° 259° (W) 01:40:55 .
Gurwin Techsat 1B 22 Feb 01:39:07 01:41:03 12° 90° (E) 01:42:58 435.225
BEESAT 22 Feb 01:42:35 01:44:32 12° 62° (ENE) 01:46:29 436.000
50 SAT 22 Feb 01:46:18 01:47:53 13° 267° (W) 01:49:28 437.505
SPROUT 22 Feb 01:48:12 01:50:41 15° 267° (W) 01:53:10 437.525
PCSat 22 Feb 02:03:09 02:07:12 21° 49° (NE) 02:11:12 145.827
BUGSAT 1 22 Feb 02:17:28 02:21:16 33° 289° (WNW) 02:25:04 437.445
FO-29 22 Feb 02:23:55 02:24:23 10° 310° (NW) 02:24:52 435.910
MOZHAYETS 4 22 Feb 02:39:51 02:42:38 16° 65° (ENE) 02:45:24
RS-15 22 Feb 02:50:58 03:02:40 45° 45° (NE) 03:13:51 29.354- 29.394
JUGNU 22 Feb 02:55:40 02:57:00 11° 188° (S) 02:58:20 437.505
Oscar 19 22 Feb 03:05:04 03:10:01 51° 288° (WNW) 03:14:56 437.125/150
ITUPSAT 1 22 Feb 03:07:24 03:12:12 89° 243° (WSW) 03:17:03 437.325
Gurwin Techsat 1B 22 Feb 03:16:11 03:21:31 75° 286° (WNW) 03:26:49 435.225
BEESAT 22 Feb 03:16:56 03:21:41 70° 258° (WSW) 03:26:29 436.000
AO-7 22 Feb 03:18:23 03:24:02 20° 93° (E) 03:29:40 .
ITAMSAT 1 22 Feb 03:29:59 03:34:18 26° 96° (E) 03:38:35 435.822/435.867
KKS-1 22 Feb 03:40:53 03:43:51 18° 66° (ENE) 03:46:50 437.445
PCSat 22 Feb 03:45:38 03:50:58 59° 247° (WSW) 03:56:16 145.827
SRMSAT 22 Feb 03:45:56 03:48:29 13° 179° (S) 03:51:02 437.500
MOZHAYETS 4 22 Feb 04:14:51 04:19:21 49° 261° (W) 04:23:52
STARS 22 Feb 04:25:56 04:29:26 24° 68° (ENE) 04:32:57 437.465
M-CUBED/EXP-1 PRIME 22 Feb 04:41:35 04:44:25 26° 67° (ENE) 04:47:12 437.505
CUBESAT XI-V 22 Feb 05:02:54 05:07:34 81° 78° (ENE) 05:12:15 437.345
RS-15 22 Feb 05:03:43 05:15:34 59° 249° (WSW) 05:26:55 29.354- 29.394
ITAMSAT 1 22 Feb 05:09:02 05:13:47 36° 291° (WNW) 05:18:31 435.822/435.867
AO-7 22 Feb 05:09:14 05:17:34 80° 290° (WNW) 05:25:49 .
KKS-1 22 Feb 05:15:58 05:20:05 39° 261° (W) 05:24:15 437.445
SRMSAT 22 Feb 05:35:27 05:36:46 11° 189° (S) 05:38:04 437.500
STARS 22 Feb 06:01:55 06:05:38 27° 263° (W) 06:09:23 437.465
AO-85 22 Feb 06:07:30 06:12:09 86° 301° (WNW) 06:16:27 145.980
XW-2F 22 Feb 06:16:08 06:18:05 14° 92° (E) 06:20:02 145.980 - 146.000
M-CUBED/EXP-1 PRIME 22 Feb 06:17:12 06:18:57 13° 260° (W) 06:20:40 437.505
XW-2D 22 Feb 06:17:57 06:20:15 15° 93° (E) 06:22:33 145.860 - 145.880
KAITUO 1B 22 Feb 06:18:39 06:20:05 12° 92° (E) 06:21:32 145.475/437.950
XW-2B 22 Feb 06:22:41 06:25:14 17° 94° (E) 06:27:46 145.730 - 145.750
XW-2C 22 Feb 06:30:45 06:33:46 22° 95° (E) 06:36:45 145.795 - 145.815
LilacSat-2 22 Feb 06:42:53 06:46:22 32° 97° (E) 06:49:49 437.200
DOVE 4 22 Feb 06:46:02 06:50:27 42° 99° (E) 06:55:06 437.250
NUDT-PHONESAT 22 Feb 06:56:44 07:00:16 37° 98° (E) 07:03:45 437.300
AO-7 22 Feb 07:04:09 07:09:01 17° 309° (NW) 07:13:54 .
STRAND 1 22 Feb 07:05:16 07:10:03 41° 71° (ENE) 07:14:53 437.568
SO-50 22 Feb 07:20:34 07:20:55 10° 39° (NE) 07:21:16 436.795
CUTE-I 22 Feb 07:26:54 07:32:19 83° 103° (ESE) 07:37:42 437.470
XW-2A 22 Feb 07:39:55 07:42:36 21° 96° (E) 07:45:16 145.665 - 145.685
XW-2F 22 Feb 07:48:51 07:52:22 35° 287° (WNW) 07:55:50 145.980 - 146.000
KAITUO 1B 22 Feb 07:50:45 07:54:18 39° 287° (WNW) 07:57:48 145.475/437.950
XW-2D 22 Feb 07:51:06 07:54:31 31° 288° (WNW) 07:57:55 145.860 - 145.880
AO-85 22 Feb 07:52:05 07:53:06 11° 317° (NW) 07:54:07 145.980
XW-2B 22 Feb 07:56:08 07:59:27 28° 289° (WNW) 08:02:45 145.730 - 145.750
BEESAT 3 22 Feb 08:02:58 08:06:50 88° 115° (ESE) 08:10:48 437.485
HO-68 22 Feb 08:03:06 08:09:39 38° 98° (E) 08:16:10 435.675
XW-2C 22 Feb 08:04:51 08:07:52 22° 290° (WNW) 08:10:53 145.795 - 145.815
LilacSat-2 22 Feb 08:17:59 08:20:21 16° 292° (WNW) 08:22:44 437.200
DOVE 4 22 Feb 08:24:37 08:27:52 19° 292° (WNW) 08:31:14 437.250
SEEDS 22 Feb 08:26:18 08:30:08 34° 97° (E) 08:33:56 437.485
AAUSAT CUBESAT 2 22 Feb 08:28:16 08:31:00 17° 93° (E) 08:33:43 437.432
NUDT-PHONESAT 22 Feb 08:31:57 08:33:50 13° 293° (WNW) 08:35:43 437.300
BEESAT 2 22 Feb 08:32:24 08:36:19 74° 119° (ESE) 08:40:18 435.950
CUBEBUG 2 22 Feb 08:34:13 08:38:28 31° 96° (E) 08:42:38 437.445
STRAND 1 22 Feb 08:45:30 08:49:22 21° 266° (W) 08:53:15 437.568
ISS 22 Feb 08:47:56 08:49:27 13° 128° (SE) 08:51:00 437.550
CUTE 1.7 + AOD 2 22 Feb 08:56:51 09:01:02 63° 284° (WNW) 09:05:10 437.475
SO-50 22 Feb 08:57:41 09:02:12 72° 58° (ENE) 09:06:38 436.795
FO-29 22 Feb 09:03:13 09:05:31 12° 52° (NE) 09:07:52 435.910
AO-73 22 Feb 09:05:12 09:08:43 22° 94° (E) 09:12:09 145.935
CUTE-I 22 Feb 09:09:24 09:11:37 13° 300° (WNW) 09:13:48 437.470
XW-2A 22 Feb 09:12:44 09:15:14 19° 290° (WNW) 09:17:43 145.665 - 145.685
Oscar 11 22 Feb 09:16:50 09:20:21 24° 95° (E) 09:23:50 .
UWE-3 22 Feb 09:19:42 09:24:21 60° 100° (E) 09:28:54 435.000/436.395/437.385
Tancredo 1 22 Feb 09:21:13 09:24:07 30° 133° (SE) 09:27:01 437.200
PRISM 22 Feb 09:37:19 09:41:23 70° 75° (ENE) 09:45:27 437.425
ZACube-1 22 Feb 09:49:40 09:54:16 76° 102° (ESE) 09:58:46 437.345
HO-68 22 Feb 09:50:48 09:57:19 39° 295° (WNW) 10:03:48 435.675
O/OREOS (USA 219) 22 Feb 09:52:26 09:56:49 44° 65° (ENE) 10:01:12 437.305
SEEDS 22 Feb 10:02:45 10:05:32 18° 293° (WNW) 10:08:19 437.485
AAUSAT CUBESAT 2 22 Feb 10:02:50 10:06:32 33° 288° (WNW) 10:10:13 437.432
CUBEBUG 2 22 Feb 10:11:00 10:14:54 25° 291° (WNW) 10:18:45 437.445
UNISAT 6 22 Feb 10:11:59 10:16:21 63° 75° (ENE) 10:20:53 437.425
BEESAT 2 22 Feb 10:13:10 10:14:35 12° 317° (NW) 10:16:01 435.950
TIGRISAT 22 Feb 10:13:32 10:17:52 60° 75° (ENE) 10:22:22 435.000
ISS 22 Feb 10:22:18 10:25:33 58° 323° (NW) 10:28:49 437.550
DELFI C3 22 Feb 10:34:28 10:38:21 58° 100° (E) 10:42:13 145.870
AO-73 22 Feb 10:40:53 10:44:57 32° 289° (WNW) 10:48:57 145.935
SO-50 22 Feb 10:41:30 10:42:00 10° 253° (WSW) 10:42:30 436.795
FO-29 22 Feb 10:42:06 10:48:51 63° 71° (ENE) 10:56:21 435.910
POLYITAN 1 22 Feb 10:42:53 10:43:56 11° 63° (ENE) 10:44:59 437.675
QB50P2 22 Feb 10:44:53 10:46:40 12° 64° (ENE) 10:48:27 145.880/145.840
NANOSAT C BR1 22 Feb 10:46:12 10:47:06 11° 63° (ENE) 10:48:00 145.865
Oscar 11 22 Feb 10:52:47 10:56:24 26° 290° (WNW) 11:00:01 .
Tancredo 1 22 Feb 10:57:33 11:00:24 27° 329° (NNW) 11:03:15 437.200
UWE-3 22 Feb 10:57:57 11:00:13 14° 296° (WNW) 11:02:30 435.000/436.395/437.385
AIST 2D 22 Feb 11:14:13 11:17:29 35° 73° (ENE) 11:20:45 435.315
YUBILEINY 22 Feb 11:24:52 11:33:32 64° 92° (E) 11:42:11 435.215
ZACube-1 22 Feb 11:29:02 11:29:51 10° 298° (WNW) 11:30:40 437.345
O/OREOS (USA 219) 22 Feb 11:33:01 11:35:49 16° 260° (W) 11:38:38 437.305
BUGSAT 1 22 Feb 11:33:15 11:34:01 10° 64° (ENE) 11:34:48 437.445
DUCHIFAT 1 22 Feb 11:52:23 11:56:29 56° 74° (ENE) 12:00:37 145.980
UNISAT 6 22 Feb 11:52:24 11:53:30 11° 270° (W) 11:54:35 437.425
TIGRISAT 22 Feb 11:53:36 11:54:58 11° 270° (W) 11:56:21 435.000
EO-79 22 Feb 11:58:36 12:02:48 82° 77° (ENE) 12:07:04 145.935-145.965
ISS 22 Feb 12:01:00 12:02:35 13° 341° (NNW) 12:04:10 437.550
POLYITAN 1 22 Feb 12:14:57 12:19:08 63° 259° (W) 12:23:22 437.675
ESTCUBE 1 22 Feb 12:15:41 12:20:04 51° 100° (E) 12:24:24 437.505/2401.250
QB50P2 22 Feb 12:17:50 12:21:57 53° 260° (W) 12:26:08 145.880/145.840
NANOSAT C BR1 22 Feb 12:18:05 12:22:14 63° 259° (W) 12:26:26 145.865
FO-29 22 Feb 12:29:05 12:34:24 24° 270° (W) 12:40:09 435.910
Oscar 19 22 Feb 12:42:15 12:46:11 23° 66° (ENE) 12:50:07 437.125/150
AIST 2D 22 Feb 12:49:33 12:50:50 12° 268° (W) 12:52:08 435.315
VELOX 1 22 Feb 12:57:22 13:01:37 46° 100° (E) 13:05:52 145.980
Gurwin Techsat 1B 22 Feb 12:57:57 13:01:27 18° 63° (ENE) 13:04:56 435.225
DX 1 22 Feb 13:01:57 13:05:20 22° 95° (E) 13:08:44 434.975-435.025
BUGSAT 1 22 Feb 13:04:52 13:08:49 59° 259° (W) 13:12:52 437.445
50 SAT 22 Feb 13:10:40 13:14:00 44° 100° (E) 13:17:19 437.505
UKube-1 22 Feb 13:21:24 13:25:01 25° 96° (E) 13:28:36 .
YUBILEINY 22 Feb 13:23:50 13:30:55 26° 291° (WNW) 13:38:02 435.215
DUCHIFAT 1 22 Feb 13:31:38 13:32:30 10° 269° (W) 13:33:20 145.980
SPROUT 22 Feb 13:33:19 13:37:38 81° 284° (WNW) 13:41:55 437.525
ESTCUBE 1 22 Feb 13:54:00 13:56:24 14° 295° (WNW) 13:58:47 437.505/2401.250
AO-7 22 Feb 14:15:40 14:22:15 27° 57° (ENE) 14:28:50 .
Oscar 19 22 Feb 14:20:22 14:25:13 41° 261° (W) 14:30:04 437.125/150
VELOX 1 22 Feb 14:35:07 14:37:40 15° 295° (WNW) 14:40:13 145.980
Gurwin Techsat 1B 22 Feb 14:35:43 14:40:54 56° 259° (W) 14:46:08 435.225
DX 1 22 Feb 14:37:44 14:41:30 29° 290° (WNW) 14:45:17 434.975-435.025
AO-85 22 Feb 14:40:30 14:44:16 43° 56° (NE) 14:48:03 145.980
ITAMSAT 1 22 Feb 14:46:13 14:50:51 34° 68° (ENE) 14:55:31 435.822/435.867
UKube-1 22 Feb 14:57:24 15:00:56 25° 291° (WNW) 15:04:27 .
ITUPSAT 1 22 Feb 15:10:05 15:14:06 26° 96° (E) 15:18:05 437.325
ISS 22 Feb 15:15:54 15:17:56 15° 22° (NNE) 15:19:58 437.550
BEESAT 22 Feb 15:18:54 15:23:14 33° 97° (E) 15:27:30 436.000
Tancredo 1 22 Feb 15:49:43 15:52:25 24° 29° (NNE) 15:55:06 437.200
AO-7 22 Feb 16:05:59 16:14:18 69° 255° (WSW) 16:22:40 .
MOZHAYETS 4 22 Feb 16:11:26 16:15:49 42° 98° (E) 16:20:10
BEESAT 3 22 Feb 16:21:31 16:25:05 29° 53° (NE) 16:28:36 437.485
AO-85 22 Feb 16:22:21 16:24:15 13° 250° (WSW) 16:26:10 145.980
ITAMSAT 1 22 Feb 16:25:56 16:30:17 27° 264° (W) 16:34:41 435.822/435.867
PCSat 22 Feb 16:43:31 16:47:38 23° 107° (ESE) 16:51:48 145.827
ITUPSAT 1 22 Feb 16:47:42 16:51:52 30° 291° (WNW) 16:56:00 437.325
ISS 22 Feb 16:51:31 16:54:48 87° 29° (NNE) 16:58:05 437.550
BEESAT 2 22 Feb 16:51:56 16:55:23 26° 51° (NE) 16:58:49 435.950
BEESAT 22 Feb 16:57:00 17:00:48 24° 293° (WNW) 17:04:36 436.000
CUBESAT XI-V 22 Feb 17:01:48 17:05:22 22° 94° (E) 17:08:55 437.345
KKS-1 22 Feb 17:08:08 17:12:23 42° 99° (E) 17:16:37 437.445
CUTE-I 22 Feb 17:10:15 17:13:00 14° 61° (ENE) 17:15:45 437.470
RS-15 22 Feb 17:13:51 17:23:15 29° 102° (ESE) 17:32:54 29.354- 29.394
LilacSat-2 22 Feb 17:24:25 17:26:27 14° 67° (ENE) 17:28:29 437.200
Tancredo 1 22 Feb 17:25:47 17:28:45 35° 226° (SW) 17:31:42 437.200
NUDT-PHONESAT 22 Feb 17:35:51 17:37:55 14° 67° (ENE) 17:39:59 437.300
MOZHAYETS 4 22 Feb 17:49:32 17:52:37 18° 294° (WNW) 17:55:41
DOVE 4 22 Feb 17:50:40 17:54:19 30° 71° (ENE) 17:57:57 437.250
STARS 22 Feb 17:51:56 17:56:19 57° 101° (E) 18:00:40 437.465
M-CUBED/EXP-1 PRIME 22 Feb 17:54:34 17:57:53 28° 104° (ESE) 18:01:23 437.505
BEESAT 3 22 Feb 17:59:24 18:02:31 22° 248° (WSW) 18:05:37 437.485
AO-7 22 Feb 18:06:54 18:08:22 10° 272° (W) 18:09:51 .
PCSat 22 Feb 18:25:32 18:30:42 45° 303° (WNW) 18:35:55 145.827
XW-2F 22 Feb 18:27:24 18:31:12 80° 79° (ENE) 18:35:04 145.980 - 146.000
KAITUO 1B 22 Feb 18:28:31 18:32:17 68° 77° (ENE) 18:36:05 145.475/437.950
BEESAT 2 22 Feb 18:29:43 18:33:04 25° 248° (WSW) 18:36:25 435.950
XW-2D 22 Feb 18:29:52 18:33:42 89° 238° (WSW) 18:37:35 145.860 - 145.880
HO-68 22 Feb 18:30:56 18:36:28 25° 60° (ENE) 18:41:59 435.675
XW-2B 22 Feb 18:34:50 18:38:40 80° 257° (WSW) 18:42:33 145.730 - 145.750
CUBESAT XI-V 22 Feb 18:38:40 18:42:46 32° 289° (WNW) 18:46:49 437.345
XW-2C 22 Feb 18:43:24 18:47:11 60° 260° (W) 18:51:00 145.795 - 145.815
KKS-1 22 Feb 18:45:41 18:48:35 17° 294° (WNW) 18:51:28 437.445
CUTE-I 22 Feb 18:47:05 18:52:23 72° 257° (WSW) 18:57:45 437.470
LilacSat-2 22 Feb 18:56:45 19:00:22 38° 262° (W) 19:04:01 437.200
NUDT-PHONESAT 22 Feb 19:08:05 19:11:31 34° 262° (W) 19:15:00 437.300
SEEDS 22 Feb 19:16:45 19:19:53 20° 68° (ENE) 19:23:02 437.485
STRAND 1 22 Feb 19:18:37 19:21:43 16° 92° (E) 19:24:48 437.568
RS-15 22 Feb 19:22:32 19:34:28 77° 303° (WNW) 19:46:54 29.354- 29.394
DOVE 4 22 Feb 19:29:12 19:32:04 18° 266° (W) 19:34:57 437.250
M-CUBED/EXP-1 PRIME 22 Feb 19:29:31 19:32:11 19° 295° (WNW) 19:34:59 437.505
STARS 22 Feb 19:30:10 19:32:08 13° 296° (WNW) 19:34:07 437.465
CUBEBUG 2 22 Feb 19:31:12 19:34:26 20° 67° (ENE) 19:37:46 437.445
XW-2A 22 Feb 19:41:25 19:44:47 77° 258° (WSW) 19:48:12 145.665 - 145.685
CUTE 1.7 + AOD 2 22 Feb 19:47:13 19:51:28 71° 77° (ENE) 19:55:45 437.475
AO-73 22 Feb 19:59:58 20:02:21 14° 65° (ENE) 20:04:45 145.935
Oscar 11 22 Feb 20:10:44 20:13:24 16° 66° (ENE) 20:16:05 .
UWE-3 22 Feb 20:14:50 20:18:54 38° 72° (ENE) 20:23:05 435.000/436.395/437.385
HO-68 22 Feb 20:16:31 20:23:37 63° 257° (WSW) 20:30:44 435.675
ZACube-1 22 Feb 20:43:24 20:47:37 46° 73° (ENE) 20:51:56 437.345
AAUSAT CUBESAT 2 22 Feb 20:50:25 20:54:33 66° 259° (W) 20:58:42 437.432
SEEDS 22 Feb 20:51:37 20:55:21 30° 263° (W) 20:59:09 437.485
STRAND 1 22 Feb 20:56:10 21:01:12 55° 287° (WNW) 21:06:12 437.568
CUBEBUG 2 22 Feb 21:06:51 21:10:47 33° 264° (W) 21:14:53 437.445
DELFI C3 22 Feb 21:18:33 21:21:52 26° 71° (ENE) 21:25:12 145.870
PRISM 22 Feb 21:23:25 21:23:44 10° 91° (E) 21:24:04 437.425
AO-73 22 Feb 21:33:49 21:38:05 51° 261° (W) 21:42:29 145.935
